Terminal Aerodrome Forecast
Issued by NWS

Home | Current Version | Previous Version | Text Only | Print | Product List | Glossary On
Versions: 1 2 3 4 5 6 7 8 9 10 11 12 13
029
FTUS44 KTSA 221417 AAA
TAFFYV
TAF AMD
KFYV 221417Z 2214/2312 24005KT P6SM VCTS BKN080CB OVC090
      TEMPO 2214/2217 02014G28KT 3SM TSRA SCT012 BKN040CB
     FM221800 25008KT P6SM SCT050 BKN150
     FM222100 29006KT P6SM VCTS BKN050CB
     FM230300 35005KT P6SM BKN250=

USA.gov is the U.S. government's official web portal to all federal, state and local government web resources and services.